1487786400.75,9757,10.63,72388.3,-3.45,-4.49,-4.69,0,*6C
1487786401.99,9758,10.63,72376.3,-3.43,-4.49,-4.69,0,*65
1487786403.22,9759,10.63,72368.8,-3.43,-4.49,-4.69,0,*64
1487786404.44,9760,10.63,72362.5,-3.45,-4.61,-4.85,0,*60
1487786405.65,9761,10.63,72378.0,-3.45,-4.61,-4.77,0,*6C
1487786406.85,9762,10.63,72394.3,-3.43,-4.45,-4.49,0,*62
1487786408.03,9763,10.63,72334.0,-3.45,-4.49,-4.45,0,*65
1487786409.22,9764,10.63,72370.8,-3.45,-4.53,-4.49,0,*65
1487786410.4,9765,10.63,72372.3,-3.45,-4.37,-4.41,0,*6E
1487786411.58,9766,10.63,72364.8,-3.45,-4.37,-4.41,0,*6D
1487786412.78,9767,10.63,72340.5,-3.45,-4.25,-4.37,0,*6E
1487786414.0,9768,10.63,72346.0,-3.43,-4.25,-4.33,0,*63
1487786415.18,9769,10.63,72344.8,-3.45,-4.29,-4.41,0,*6D
1487786416.41,9770,10.63,72352.5,-3.43,-4.33,-4.37,0,*69
1487786417.62,9771,10.63,72320.3,-3.43,-4.33,-4.37,0,*68
1487786418.85,9772,10.63,72348.8,-3.43,-4.25,-4.37,0,*6C
1487786420.07,9773,10.63,72348.3,-3.43,-4.25,-4.37,0,*6D
1487786421.25,9774,10.63,72344.0,-3.45,-4.37,-4.37,0,*6F
1487786422.44,9775,10.63,72350.3,-3.45,-4.41,-4.37,0,*6F
1487786423.66,9776,10.63,72340.0,-3.43,-4.33,-4.37,0,*6F
1487786424.85,9777,10.63,72336.5,-3.45,-4.29,-4.41,0,*62
1487786426.07,9778,10.63,72326.0,-3.43,-4.33,-4.37,0,*61
1487786427.26,9779,10.63,72340.8,-3.45,-4.41,-4.49,0,*6A
1487786428.46,9780,10.63,72342.3,-3.43,-4.45,-4.49,0,*6E
1487786429.67,9781,10.63,72344.0,-3.43,-4.45,-4.49,0,*6F
1487786430.88,9782,10.63,72344.0,-3.43,-4.37,-4.49,0,*69
1487786432.06,9783,10.63,72340.8,-3.45,-4.45,-4.37,0,*62
1487786433.24,9784,10.63,72360.5,-3.45,-4.37,-4.45,0,*65
1487786434.46,9785,10.63,72346.5,-3.43,-4.33,-4.37,0,*63
1487786435.68,9786,10.63,72366.8,-3.43,-4.25,-4.45,0,*62
1487786436.89,9787,10.63,72368.3,-3.43,-4.25,-4.33,0,*62
1487786438.1,9788,10.63,72364.0,-3.43,-4.37,-4.49,0,*63
1487786439.31,9789,10.63,72370.0,-3.43,-4.45,-4.49,0,*67
1487786440.53,9790,10.63,72372.3,-3.43,-4.33,-4.33,0,*63
1487786441.71,9791,10.63,72370.8,-3.45,-4.33,-4.45,0,*65
1487786442.89,9792,10.63,72392.3,-3.45,-4.37,-4.45,0,*62
1487786444.1,9793,10.63,72386.3,-3.43,-4.45,-4.57,0,*63
1487786445.32,9794,10.63,72400.0,-3.43,-4.33,-4.49,0,*6A
1487786446.53,9795,10.63,72406.0,-3.43,-4.33,-4.45,0,*67
1487786447.75,9796,10.63,72402.5,-3.43,-4.25,-4.33,0,*62
1487786448.97,9797,10.63,72374.3,-3.43,-4.25,-4.37,0,*67
1487786450.16,9798,10.63,72358.5,-3.45,-4.37,-4.53,0,*6F
1487786451.38,9799,10.63,72378.3,-3.43,-4.25,-4.37,0,*69
1487786452.56,9800,10.63,72394.5,-3.45,-4.37,-4.41,0,*62
1487786453.77,9801,10.63,72376.0,-3.43,-4.45,-4.49,0,*68
1487786454.98,9802,10.63,72310.8,-3.43,-4.37,-4.57,0,*61
1487786456.2,9803,10.63,72372.8,-3.43,-4.25,-4.37,0,*65
1487786457.39,9804,10.63,72382.5,-3.45,-4.29,-4.41,0,*69
1487786458.61,9805,10.63,72394.5,-3.43,-4.25,-4.37,0,*63
1487786459.82,9806,10.63,72392.0,-3.43,-4.45,-4.57,0,*60
1487786461.03,9807,10.63,72418.8,-3.43,-4.37,-4.49,0,*6B
1487786462.26,9808,10.63,72404.5,-3.43,-4.33,-4.57,0,*6F
1487786463.44,9809,10.63,72410.3,-3.45,-4.41,-4.53,0,*69
1487786464.63,9810,10.63,72412.0,-3.39,-4.33,-4.45,0,*68
1487786465.82,9811,10.63,72402.0,-3.45,-4.29,-4.41,0,*6D
1487786467.01,9812,10.63,72400.0,-3.45,-4.37,-4.49,0,*69
1487786468.22,9813,10.63,72398.3,-3.43,-4.25,-4.45,0,*61
1487786469.44,9814,10.63,72406.8,-3.43,-4.25,-4.37,0,*63
1487786470.62,9815,10.63,72406.8,-3.45,-4.37,-4.49,0,*6E
1487786471.81,9816,10.63,72404.3,-3.45,-4.37,-4.49,0,*6D
1487786473.01,9817,10.63,72412.8,-3.43,-4.37,-4.45,0,*66
1487786474.23,9818,10.63,72412.0,-3.43,-4.33,-4.49,0,*61
1487786475.45,9819,10.63,72414.0,-3.43,-4.25,-4.45,0,*6B
1487786476.65,9820,10.63,72408.3,-3.43,-4.45,-4.49,0,*6B
1487786477.89,9821,10.63,72408.3,-3.43,-4.45,-4.69,0,*68
1487786479.12,9822,10.63,72396.5,-3.43,-4.49,-4.69,0,*67
1487786480.33,9823,10.63,72386.3,-3.43,-4.45,-4.57,0,*67
1487786481.55,9824,10.63,72384.5,-3.43,-4.37,-4.57,0,*65
1487786482.75,9825,10.63,72384.8,-3.43,-4.45,-4.49,0,*6E
1487786483.97,9826,10.63,72382.5,-3.43,-4.37,-4.61,0,*62
1487786485.15,9827,10.63,72390.8,-3.39,-4.41,-4.45,0,*69
1487786486.36,9828,10.63,72390.8,-3.43,-4.45,-4.49,0,*63
1487786487.59,9829,10.63,72396.0,-3.43,-4.45,-4.69,0,*60
1487786488.84,9830,10.63,72390.8,-3.43,-4.57,-4.69,0,*6B
1487786490.05,9831,10.63,72396.8,-3.43,-4.49,-4.61,0,*6D
1487786491.26,9832,10.63,72396.8,-3.43,-4.49,-4.61,0,*6E
1487786492.47,9833,10.63,72394.5,-3.43,-4.45,-4.61,0,*63
1487786493.68,9834,10.63,72394.0,-3.43,-4.45,-4.57,0,*61
1487786494.89,9835,10.63,72392.8,-3.43,-4.45,-4.57,0,*60
1487786496.1,9836,10.63,72380.8,-3.43,-4.49,-4.45,0,*6C
1487786497.3,9837,10.63,72382.8,-3.43,-4.45,-4.49,0,*6D
1487786498.51,9838,10.63,72378.8,-3.43,-4.45,-4.49,0,*62
1487786499.71,9839,10.63,72382.5,-3.43,-4.45,-4.49,0,*63
1487786500.92,9840,10.63,72370.5,-3.43,-4.45,-4.49,0,*6D
1487786502.13,9841,10.63,72368.5,-3.43,-4.37,-4.45,0,*65
1487786503.33,9842,10.63,72368.5,-3.43,-4.45,-4.45,0,*63
1487786504.54,9843,10.63,72376.8,-3.43,-4.37,-4.45,0,*67
1487786505.76,9844,10.63,72380.8,-3.43,-4.33,-4.37,0,*61
1487786506.98,9845,10.63,72390.8,-3.43,-4.25,-4.37,0,*67
1487786508.2,9846,10.63,72394.8,-3.43,-4.33,-4.37,0,*63
1487786509.4,9847,10.63,72396.5,-3.43,-4.37,-4.45,0,*63
1487786510.59,9848,10.63,72402.5,-3.45,-4.37,-4.41,0,*6E
1487786511.81,9849,10.63,72400.5,-3.43,-4.33,-4.37,0,*6C
1487786513.0,9850,10.63,72400.5,-3.45,-4.33,-4.37,0,*62
1487786514.22,9851,10.63,72406.0,-3.43,-4.25,-4.37,0,*62
1487786515.44,9852,10.63,72410.0,-3.43,-4.25,-4.33,0,*65
1487786516.62,9853,10.63,72410.8,-3.45,-4.37,-4.41,0,*64
1487786517.84,9854,10.63,72414.0,-3.43,-4.25,-4.37,0,*67
1487786519.06,9855,10.63,72410.5,-3.43,-4.33,-4.57,0,*67
1487786520.27,9856,10.63,72394.8,-3.43,-4.37,-4.49,0,*6F
1487786521.48,9857,10.63,72398.5,-3.43,-4.45,-4.57,0,*64
1487786522.72,9858,10.63,72404.8,-3.43,-4.49,-4.69,0,*6A
1487786523.96,9859,10.63,72410.3,-3.43,-4.49,-4.69,0,*6B
1487786525.2,9860,10.63,72414.3,-3.43,-4.49,-4.69,0,*61
1487786526.43,9861,10.63,72418.8,-3.43,-4.45,-4.69,0,*6C
1487786527.67,9862,10.63,72418.5,-3.43,-4.57,-4.81,0,*6A
1487786528.92,9863,10.63,72412.8,-3.43,-4.57,-4.69,0,*6D
1487786530.13,9864,10.63,72430.8,-3.43,-4.45,-4.61,0,*61
1487786531.31,9865,10.63,72432.8,-3.45,-4.49,-4.65,0,*6E
1487786532.52,9866,10.63,72430.0,-3.43,-4.45,-4.61,0,*63
1487786533.71,9867,10.63,72434.0,-3.45,-4.53,-4.65,0,*67
1487786534.9,9868,10.63,72446.5,-3.45,-4.53,-4.61,0,*6C
1487786536.14,9869,10.63,72426.5,-3.43,-4.61,-4.69,0,*62
1487786537.35,9870,10.63,72412.8,-3.45,-4.61,-4.73,0,*67
1487786538.56,9871,10.63,72390.8,-3.43,-4.49,-4.61,0,*69
1487786539.81,9872,10.63,72384.0,-3.43,-4.57,-4.69,0,*6D
1487786541.04,9873,10.63,72356.5,-3.43,-4.49,-4.85,0,*61
1487786542.29,9874,10.63,72374.3,-3.43,-4.57,-5.07,0,*62
1487786543.5,9875,10.63,72356.8,-3.45,-4.85,-5.43,0,*6A
1487786544.71,9876,10.63,72336.8,-3.45,-4.89,-5.43,0,*65
1487786545.9,9877,10.63,72352.8,-3.45,-4.99,-5.55,0,*62
1487786547.13,9878,10.63,72354.5,-3.45,-5.11,-5.81,0,*65
1487786548.37,9879,10.63,72374.0,-3.45,-5.19,-5.89,0,*64
1487786549.64,9880,10.63,72376.3,-3.43,-5.23,-5.85,0,*61
1487786550.86,9881,10.63,72372.8,-3.45,-5.39,-6.19,0,*6B
1487786552.05,9882,10.63,72378.3,-3.45,-5.51,-6.47,0,*6D
1487786553.27,9883,10.63,72386.3,-3.45,-5.69,-6.85,0,*69
1487786554.51,9884,10.63,72392.0,-3.45,-5.93,-7.01,0,*66
1487786555.72,9885,10.63,72386.5,-3.45,-6.19,-7.15,0,*63
1487786556.93,9886,10.63,72354.5,-3.45,-6.23,-7.49,0,*60
1487786558.19,9887,10.63,72340.5,-3.43,-6.63,-7.77,0,*6E
1487786559.42,9888,10.63,72374.3,-3.45,-6.81,-8.07,0,*63
1487786560.63,9889,10.63,72350.3,-3.45,-6.89,-8.07,0,*6A
1487786561.88,9890,10.63,72378.0,-3.47,-7.11,-7.91,0,*60
1487786563.09,9891,10.63,72304.3,-3.47,-7.23,-7.49,0,*65
1487786564.27,9892,10.63,72306.0,-3.45,-6.85,-6.69,0,*6A
1487786565.51,9893,10.63,72292.0,-3.47,-6.19,-6.31,0,*61
1487786566.77,9894,10.63,72308.8,-3.47,-5.89,-6.23,0,*6F
1487786568.01,9895,10.63,72344.0,-3.47,-5.89,-6.09,0,*66
1487786569.25,9896,10.63,72360.8,-3.47,-5.69,-5.55,0,*61
1487786570.52,9897,10.63,72360.0,-3.47,-5.19,-5.03,0,*64
1487786571.76,9898,10.63,72360.0,-3.49,-5.11,-5.03,0,*6D
1487786573.03,9899,10.63,72382.3,-3.47,-5.11,-5.03,0,*62
1487786574.29,9900,10.63,72366.0,-3.47,-5.03,-4.89,0,*63
1487786575.55,9901,10.63,72358.5,-3.47,-4.89,-4.73,0,*64
1487786576.81,9902,10.63,72354.5,-3.47,-4.73,-4.73,0,*62
1487786578.02,9903,10.63,72368.8,-3.47,-4.53,-4.53,0,*63
1487786579.23,9904,10.63,72354.3,-3.47,-4.53,-4.53,0,*64
1487786580.44,9905,10.63,72354.8,-3.47,-4.49,-4.49,0,*65
1487786581.65,9906,10.63,72352.8,-3.47,-4.41,-4.41,0,*66
1487786582.86,9907,10.63,72384.5,-3.47,-4.29,-4.37,0,*68
1487786584.07,9908,10.63,72324.5,-3.47,-4.41,-4.49,0,*60
1487786585.28,9909,10.63,72360.5,-3.47,-4.49,-4.53,0,*62
1487786586.49,9910,10.63,72360.5,-3.47,-4.41,-4.53,0,*62
1487786587.68,9911,10.63,72374.3,-3.49,-4.45,-4.53,0,*69
1487786588.87,9912,10.63,72386.8,-3.45,-4.49,-4.53,0,*6A
1487786590.06,9913,10.63,72390.3,-3.45,-4.41,-4.53,0,*63
1487786591.27,9914,10.63,72390.8,-3.47,-4.41,-4.53,0,*66
1487786592.48,9915,10.63,72396.5,-3.47,-4.37,-4.41,0,*65
1487786593.69,9916,10.63,72390.5,-3.47,-4.41,-4.49,0,*6F
1487786594.89,9917,10.63,72396.8,-3.47,-4.37,-4.49,0,*6F
1487786596.1,9918,10.63,72390.5,-3.47,-4.49,-4.61,0,*63
1487786597.29,9919,10.63,72394.8,-3.45,-4.49,-4.61,0,*60
1487786598.5,9920,10.63,72366.8,-3.47,-4.53,-4.53,0,*62
1487786599.71,9921,10.63,72376.3,-3.47,-4.53,-4.53,0,*63
1487786600.9,9922,10.63,72368.0,-3.45,-4.53,-4.53,0,*62
1487786602.08,9923,10.63,72352.3,-3.45,-4.53,-4.61,0,*62
1487786603.27,9924,10.63,72362.3,-3.45,-4.53,-4.61,0,*65
1487786604.48,9925,10.63,72364.8,-3.47,-4.53,-4.61,0,*66
1487786605.69,9926,10.63,72364.0,-3.47,-4.61,-4.61,0,*64
1487786606.91,9927,10.63,72392.5,-3.47,-4.53,-4.65,0,*60
1487786608.09,9928,10.63,72402.0,-3.45,-4.53,-4.61,0,*69
1487786609.28,9929,10.63,72414.5,-3.45,-4.41,-4.49,0,*61
1487786610.49,9930,10.63,72410.3,-3.47,-4.41,-4.53,0,*60
1487786611.7,9931,10.63,72404.5,-3.47,-4.49,-4.49,0,*62
1487786612.89,9932,10.63,72396.3,-3.49,-4.53,-4.57,0,*6B
1487786614.1,9933,10.63,72396.5,-3.47,-4.49,-4.61,0,*6A
1487786615.29,9934,10.63,72388.8,-3.49,-4.45,-4.57,0,*6A
1487786616.49,9935,10.63,72384.0,-3.47,-4.49,-4.49,0,*66
1487786617.7,9936,10.63,72392.8,-3.47,-4.49,-4.53,0,*6E
1487786618.89,9937,10.63,72396.5,-3.45,-4.41,-4.41,0,*66
1487786620.08,9938,10.63,72390.0,-3.49,-4.45,-4.53,0,*62
1487786621.29,9939,10.63,72386.3,-3.47,-4.41,-4.53,0,*69
1487786622.48,9940,10.63,72380.8,-3.49,-4.53,-4.65,0,*6F
1487786623.68,9941,10.63,72382.0,-3.49,-4.57,-4.65,0,*6A
1487786624.89,9942,10.63,72392.5,-3.47,-4.49,-4.57,0,*69
1487786626.1,9943,10.63,72388.0,-3.47,-4.49,-4.61,0,*6D
1487786627.31,9944,10.63,72406.0,-3.47,-4.41,-4.49,0,*68
1487786628.51,9945,10.63,72408.8,-3.47,-4.49,-4.49,0,*61
1487786629.71,9946,10.63,72380.8,-3.49,-4.41,-4.53,0,*6F
1487786630.92,9947,10.63,72396.0,-3.47,-4.41,-4.37,0,*62
1487786632.13,9948,10.63,72388.5,-3.47,-4.37,-4.49,0,*65
1487786633.34,9949,10.63,72384.5,-3.47,-4.41,-4.41,0,*6D
1487786634.55,9950,10.63,72362.5,-3.47,-4.41,-4.49,0,*6D
1487786635.74,9951,10.63,72358.8,-3.49,-4.57,-4.65,0,*6B
1487786636.96,9952,10.63,72368.0,-3.49,-4.65,-4.69,0,*65
1487786638.17,9953,10.63,72380.0,-3.47,-4.53,-4.65,0,*63
1487786639.38,9954,10.63,72372.0,-3.47,-4.53,-4.61,0,*60
1487786640.61,9955,10.63,72354.5,-3.49,-4.57,-4.69,0,*63
1487786641.82,9956,10.63,72352.3,-3.49,-4.65,-4.69,0,*61
1487786643.04,9957,10.63,72338.8,-3.47,-4.61,-4.65,0,*66
1487786644.26,9958,10.63,72340.3,-3.49,-4.57,-4.69,0,*6E
1487786645.47,9959,10.63,72344.5,-3.47,-4.53,-4.53,0,*6C
1487786646.66,9960,10.63,72342.8,-3.49,-4.41,-4.53,0,*6B
1487786647.87,9961,10.63,72356.5,-3.47,-4.41,-4.41,0,*67
1487786649.06,9962,10.63,72370.3,-3.49,-4.33,-4.45,0,*6B
1487786650.28,9963,10.63,72378.3,-3.47,-4.29,-4.37,0,*6A
1487786651.47,9964,10.63,72380.8,-3.49,-4.41,-4.57,0,*6B
1487786652.69,9965,10.63,72384.5,-3.47,-4.41,-4.53,0,*60
1487786653.88,9966,10.63,72376.3,-3.49,-4.53,-4.65,0,*6B
1487786655.07,9967,10.63,72402.8,-3.49,-4.57,-4.65,0,*6E
1487786656.27,9968,10.63,72384.8,-3.49,-4.57,-4.65,0,*61
1487786657.49,9969,10.56,72382.3,-3.47,-4.61,-4.61,0,*6F
1487786658.7,9970,10.63,72370.5,-3.47,-4.53,-4.61,0,*66
1487786659.89,9971,10.63,72368.0,-3.49,-4.57,-4.65,0,*69
1487786661.09,9972,10.63,72382.5,-3.49,-4.57,-4.65,0,*6A
1487786662.31,9973,10.63,72368.5,-3.49,-4.57,-4.69,0,*67
1487786663.53,9974,10.63,72380.0,-3.49,-4.57,-4.69,0,*60
1487786664.73,9975,10.63,72396.8,-3.49,-4.57,-4.57,0,*6C
1487786665.93,9976,10.63,72388.8,-3.49,-4.57,-4.57,0,*6F
1487786667.13,9977,10.63,72382.3,-3.49,-4.57,-4.65,0,*6F
1487786668.34,9978,10.63,72374.3,-3.47,-4.53,-4.65,0,*6A
1487786669.55,9979,10.63,72376.5,-3.47,-4.49,-4.53,0,*65
1487786670.73,9980,10.63,72386.0,-3.49,-4.53,-4.49,0,*6D
1487786671.94,9981,10.63,72382.3,-3.47,-4.49,-4.49,0,*69
1487786673.13,9982,10.63,72378.5,-3.49,-4.45,-4.53,0,*63
1487786674.32,9983,10.63,72374.3,-3.49,-4.53,-4.57,0,*61
1487786675.53,9984,10.63,72360.5,-3.47,-4.37,-4.49,0,*65
1487786676.72,9985,10.63,72370.0,-3.49,-4.45,-4.57,0,*60
1487786677.93,9986,10.63,72368.5,-3.47,-4.65,-4.65,0,*6E
1487786679.12,9987,10.63,72344.5,-3.49,-4.53,-4.65,0,*64
1487786680.31,9988,10.63,72334.0,-3.49,-4.53,-4.53,0,*6E
1487786681.5,9989,10.63,72362.8,-3.49,-4.45,-4.57,0,*6C
1487786682.69,9990,10.63,72364.5,-3.49,-4.53,-4.57,0,*63
1487786683.89,9991,10.63,72370.3,-3.49,-4.41,-4.57,0,*61
1487786685.08,9992,10.63,72354.8,-3.49,-4.53,-4.57,0,*61
1487786686.27,9993,10.63,72336.0,-3.49,-4.45,-4.57,0,*67
1487786687.46,9994,10.63,72324.5,-3.49,-4.53,-4.57,0,*67
1487786688.65,9995,10.63,72344.0,-3.49,-4.65,-4.57,0,*63
1487786689.85,9996,10.63,72364.8,-3.49,-4.57,-4.65,0,*60
1487786691.04,9997,10.63,72392.5,-3.49,-4.53,-4.65,0,*65
1487786692.23,9998,10.63,72402.0,-3.49,-4.45,-4.57,0,*6C
1487786693.43,9999,10.63,72394.5,-3.47,-4.49,-4.49,0,*60
1487786694.63,10000,10.63,72366.8,-3.49,-4.45,-4.53,0,*58
1487786695.83,10001,10.63,72344.3,-3.49,-4.53,-4.53,0,*5E
1487786697.04,10002,10.63,72344.8,-3.47,-4.49,-4.57,0,*5C
1487786698.23,10003,10.63,72366.8,-3.49,-4.45,-4.53,0,*5B
1487786699.43,10004,10.63,72358.5,-3.49,-4.45,-4.57,0,*58
1487786700.63,10005,10.63,72342.5,-3.49,-4.53,-4.57,0,*5E
1487786701.84,10006,10.63,72340.5,-3.47,-4.41,-4.53,0,*54
1487786703.04,10007,10.63,72362.3,-3.49,-4.41,-4.57,0,*5F
1487786704.26,10008,10.63,72348.3,-3.49,-4.45,-4.69,0,*59
1487786705.48,10009,10.63,72356.0,-3.49,-4.45,-4.81,0,*5E
1487786706.7,10010,10.63,72370.0,-3.49,-4.45,-4.89,0,*5E
1487786707.91,10011,10.63,72380.0,-3.49,-4.53,-4.93,0,*53
1487786709.14,10012,10.63,72386.0,-3.49,-4.65,-5.03,0,*5D
1487786710.41,10013,10.63,72346.5,-3.47,-4.85,-5.15,0,*5B
1487786711.66,10014,10.63,72370.3,-3.49,-4.89,-5.23,0,*5B
1487786712.93,10015,10.63,72364.8,-3.47,-4.89,-5.15,0,*51
1487786714.18,10016,10.63,72350.8,-3.49,-4.89,-5.07,0,*5F
1487786715.45,10017,10.63,72326.0,-3.47,-4.85,-5.03,0,*58
1487786716.7,10018,10.63,72324.8,-3.49,-4.89,-5.03,0,*55
1487786717.95,10019,10.63,72304.3,-3.49,-4.81,-5.03,0,*5C
1487786719.2,10020,10.63,72314.8,-3.49,-4.89,-5.23,0,*5C
1487786720.45,10021,10.63,72338.5,-3.49,-4.89,-5.23,0,*5D
1487786721.68,10022,10.63,72346.0,-3.49,-5.03,-5.47,0,*5F
1487786722.91,10023,10.63,72354.3,-3.49,-5.07,-5.55,0,*59
1487786724.14,10024,10.63,72364.3,-3.49,-5.19,-5.55,0,*51
1487786725.39,10025,10.63,72374.8,-3.49,-5.31,-5.69,0,*55
1487786726.61,10026,10.63,72376.0,-3.49,-5.43,-5.65,0,*5F
1487786727.81,10027,10.63,72386.3,-3.49,-5.43,-5.55,0,*5D
1487786729.03,10028,10.63,72380.3,-3.47,-5.39,-5.51,0,*55
1487786730.25,10029,10.63,72376.8,-3.49,-5.47,-5.73,0,*53
1487786731.49,10030,10.63,72390.0,-3.49,-5.55,-5.85,0,*51
1487786732.74,10031,10.63,72376.3,-3.49,-5.81,-5.93,0,*5E
1487786733.96,10032,10.63,72376.0,-3.49,-5.73,-5.55,0,*5A
1487786735.19,10033,10.63,72378.8,-3.49,-5.35,-5.19,0,*51
1487786736.44,10034,10.63,72360.0,-3.49,-5.15,-5.03,0,*5F
1487786737.68,10035,10.63,72374.0,-3.47,-4.85,-4.65,0,*59
1487786738.9,10036,10.63,72358.8,-3.49,-4.77,-4.57,0,*58
1487786740.1,10037,10.63,72362.0,-3.49,-4.57,-4.53,0,*5F
1487786741.3,10038,10.63,72362.0,-3.49,-4.53,-4.53,0,*54
1487786742.48,10039,10.63,72372.5,-3.49,-4.45,-4.45,0,*55
1487786743.68,10040,10.63,72352.3,-3.49,-4.53,-4.57,0,*5F
1487786744.88,10041,10.63,72366.0,-3.49,-4.53,-4.65,0,*5F
1487786746.11,10042,10.63,72368.8,-3.49,-4.57,-4.69,0,*54
1487786747.32,10043,10.63,72376.8,-3.47,-4.49,-4.53,0,*5D
1487786748.52,10044,10.63,72396.5,-3.49,-4.57,-4.57,0,*5F
1487786749.72,10045,10.63,72396.0,-3.49,-4.65,-4.57,0,*5F
1487786750.93,10046,10.63,72394.5,-3.49,-4.57,-4.65,0,*5C
1487786752.13,10047,10.63,72408.3,-3.49,-4.57,-4.61,0,*59
1487786753.35,10048,10.63,72406.8,-3.51,-4.53,-4.57,0,*5E
1487786754.57,10049,10.63,72416.3,-3.51,-4.45,-4.57,0,*58
1487786755.77,10050,10.63,72396.5,-3.49,-4.53,-4.57,0,*5E
1487786757.01,10051,10.63,72388.3,-3.47,-4.65,-4.73,0,*52
1487786758.24,10052,10.63,72384.5,-3.49,-4.57,-4.69,0,*55
1487786759.44,10053,10.63,72384.5,-3.49,-4.53,-4.57,0,*5D
1487786760.66,10054,10.63,72376.0,-3.49,-4.65,-4.77,0,*5D
1487786761.86,10055,10.63,72376.3,-3.49,-4.57,-4.65,0,*5E
1487786763.08,10056,10.63,72376.3,-3.49,-4.57,-4.77,0,*5E
1487786764.33,10057,10.63,72382.5,-3.49,-4.69,-4.89,0,*53
1487786765.6,10058,10.63,72384.3,-3.51,-4.69,-5.03,0,*56
1487786766.84,10059,10.63,72380.3,-3.49,-4.77,-5.07,0,*55
1487786768.09,10060,10.63,72382.8,-3.49,-4.81,-5.23,0,*50
1487786769.36,10061,10.63,72386.8,-3.47,-4.85,-5.31,0,*58
1487786770.63,10062,10.63,72388.5,-3.51,-5.03,-5.69,0,*5E
1487786771.91,10063,10.63,72398.0,-3.51,-5.19,-5.85,0,*56
1487786773.19,10064,10.63,72394.8,-3.51,-5.23,-5.69,0,*5A
1487786774.45,10065,10.63,72392.3,-3.49,-5.23,-5.61,0,*5A
1487786775.69,10066,10.63,72386.5,-3.49,-5.23,-5.73,0,*5A
1487786776.92,10067,10.63,72376.8,-3.49,-5.35,-5.85,0,*55
1487786778.14,10068,10.63,72368.8,-3.49,-5.61,-5.97,0,*58
1487786779.39,10069,10.63,72374.0,-3.49,-5.69,-5.93,0,*55
1487786780.64,10070,10.63,72378.0,-3.49,-5.69,-5.81,0,*5E
1487786781.88,10071,10.63,72386.0,-3.49,-5.73,-5.93,0,*57
1487786783.14,10072,10.63,72390.5,-3.49,-5.85,-5.93,0,*5D
1487786784.4,10073,10.63,72376.3,-3.47,-5.65,-5.65,0,*55
1487786785.63,10074,10.63,72358.0,-3.49,-5.61,-5.55,0,*5B
1487786786.83,10075,10.63,72350.8,-3.49,-5.47,-5.47,0,*5D
1487786788.05,10076,10.63,72362.5,-3.51,-5.43,-5.43,0,*57
1487786789.3,10077,10.63,72366.3,-3.49,-5.19,-5.23,0,*56
1487786790.55,10078,10.63,72376.5,-3.51,-5.19,-5.43,0,*56
1487786791.78,10079,10.63,72404.0,-3.49,-5.19,-5.47,0,*5A
1487786793.03,10080,10.63,72416.3,-3.49,-5.19,-5.61,0,*58
1487786794.3,10081,10.63,72418.3,-3.51,-5.31,-5.73,0,*59
1487786795.56,10082,10.63,72404.3,-3.51,-5.47,-5.85,0,*52
1487786796.83,10083,10.63,72400.0,-3.51,-5.61,-5.81,0,*53
1487786798.06,10084,10.63,72410.5,-3.49,-5.55,-5.69,0,*5C
1487786799.29,10085,10.63,72412.5,-3.49,-5.55,-5.61,0,*55
1487786800.52,10086,10.63,72408.0,-3.49,-5.61,-5.55,0,*56
1487786801.75,10087,10.63,72430.5,-3.49,-5.61,-5.55,0,*57
1487786803.0,10088,10.63,72422.8,-3.49,-5.69,-5.81,0,*59
1487786804.21,10089,10.63,72426.3,-3.49,-5.73,-5.97,0,*54
1487786805.41,10090,10.63,72412.3,-3.49,-5.97,-6.09,0,*52
1487786806.63,10091,10.63,72414.5,-3.49,-6.09,-6.23,0,*5F
1487786807.85,10092,10.63,72416.5,-3.49,-6.35,-6.23,0,*53
1487786809.07,10093,10.63,72416.8,-3.49,-6.27,-6.09,0,*59
1487786810.3,10094,10.63,72418.5,-3.49,-5.97,-5.61,0,*5B
1487786811.57,10095,10.63,72396.8,-3.47,-5.81,-5.81,0,*5D
1487786812.81,10096,10.63,72374.8,-3.47,-5.97,-5.81,0,*59
1487786814.04,10097,10.63,72352.0,-3.49,-6.01,-5.85,0,*5E
1487786815.26,10098,10.63,72370.3,-3.49,-6.09,-5.93,0,*5E
1487786816.49,10099,10.63,72352.5,-3.49,-6.13,-5.93,0,*54
1487786817.74,10100,10.63,72366.8,-3.49,-6.23,-5.81,0,*55
1487786818.99,10101,10.63,72362.3,-3.47,-5.97,-5.61,0,*58
1487786820.22,10102,10.63,72358.3,-3.49,-5.93,-5.55,0,*56
1487786821.47,10103,10.63,72370.0,-3.49,-5.61,-5.31,0,*58
1487786822.69,10104,10.63,72402.5,-3.49,-5.43,-5.19,0,*55
1487786823.95,10105,10.63,72406.8,-3.49,-5.23,-5.15,0,*5E
1487786825.2,10106,10.63,72386.8,-3.49,-5.23,-5.15,0,*5D
1487786826.46,10107,10.63,72384.5,-3.49,-5.31,-5.19,0,*53
1487786827.71,10108,10.63,72394.5,-3.49,-5.31,-5.23,0,*55
1487786828.96,10109,10.63,72412.3,-3.49,-5.19,-5.15,0,*5B
1487786830.22,10110,10.63,72428.0,-3.49,-5.19,-5.07,0,*50
1487786831.48,10111,10.63,72426.5,-3.49,-5.15,-5.03,0,*59
1487786832.73,10112,10.63,72430.5,-3.49,-5.07,-5.03,0,*59
1487786834.01,10113,10.63,72428.3,-3.47,-5.03,-4.89,0,*51
1487786835.26,10114,10.63,72430.3,-3.49,-5.15,-4.93,0,*54
1487786836.51,10115,10.63,72414.3,-3.49,-5.19,-4.89,0,*52
1487786837.75,10116,10.63,72394.0,-3.49,-5.15,-4.77,0,*5C
1487786838.97,10117,10.63,72374.3,-3.47,-4.99,-4.65,0,*55
1487786840.19,10118,10.63,72392.0,-3.49,-4.93,-4.57,0,*5F
1487786841.4,10119,10.63,72414.8,-3.47,-4.65,-4.49,0,*56
1487786842.61,10120,10.63,72422.0,-3.47,-4.49,-4.49,0,*52
1487786843.82,10121,10.63,72402.5,-3.49,-4.57,-4.53,0,*59
1487786845.02,10122,10.63,72390.3,-3.49,-4.53,-4.53,0,*5E
1487786846.2,10123,10.63,72382.8,-3.49,-4.53,-4.45,0,*58
1487786847.42,10124,10.63,72392.3,-3.47,-4.49,-4.49,0,*56
1487786848.61,10125,10.63,72392.8,-3.49,-4.53,-4.45,0,*5E
1487786849.8,10126,10.63,72368.5,-3.49,-4.53,-4.53,0,*5A
1487786851.0,10127,10.63,72362.8,-3.49,-4.49,-4.49,0,*5B
1487786852.22,10128,10.63,72374.8,-3.47,-4.41,-4.53,0,*59
1487786853.41,10129,10.63,72384.0,-3.49,-4.45,-4.53,0,*52
1487786854.6,10130,10.63,72386.0,-3.49,-4.45,-4.57,0,*5E
1487786855.82,10131,10.63,72382.8,-3.47,-4.41,-4.41,0,*52
1487786857.04,10132,10.63,72392.5,-3.47,-4.29,-4.41,0,*5F
1487786858.25,10133,10.63,72402.5,-3.47,-4.37,-4.37,0,*50
1487786859.47,10134,10.63,72394.5,-3.47,-4.37,-4.37,0,*57
1487786860.68,10135,10.63,72382.8,-3.47,-4.29,-4.41,0,*58
1487786861.9,10136,10.63,72386.8,-3.47,-4.41,-4.41,0,*55
1487786863.1,10137,10.63,72374.8,-3.49,-4.41,-4.53,0,*59
1487786864.31,10138,10.63,72324.8,-3.47,-4.37,-4.41,0,*5A
1487786865.53,10139,10.63,72348.8,-3.47,-4.41,-4.49,0,*52
1487786866.75,10140,10.63,72368.5,-3.47,-4.29,-4.49,0,*52
1487786867.97,10141,10.63,72368.3,-3.47,-4.29,-4.37,0,*5A
1487786869.18,10142,10.63,72366.3,-3.47,-4.37,-4.41,0,*57
1487786870.39,10143,10.63,72370.3,-3.47,-4.37,-4.49,0,*5E
1487786871.58,10144,10.63,72364.0,-3.49,-4.41,-4.45,0,*5A
1487786872.8,10145,10.63,72364.0,-3.47,-4.37,-4.41,0,*50
1487786874.01,10146,10.63,72366.3,-3.47,-4.37,-4.49,0,*5B
1487786875.22,10147,10.63,72362.8,-3.47,-4.37,-4.41,0,*52
1487786876.42,10148,10.63,72366.0,-3.49,-4.41,-4.49,0,*5A
1487786877.61,10149,10.63,72372.8,-3.45,-4.29,-4.41,0,*51
1487786878.82,10150,10.63,72378.8,-3.47,-4.37,-4.41,0,*54
1487786880.01,10151,10.63,72376.5,-3.49,-4.45,-4.45,0,*5A
1487786881.22,10152,10.63,72382.3,-3.47,-4.37,-4.41,0,*56
1487786882.42,10153,10.63,72382.8,-3.49,-4.41,-4.53,0,*5B
1487786883.64,10154,10.63,72392.8,-3.47,-4.41,-4.49,0,*59
1487786884.85,10155,10.63,72386.5,-3.47,-4.41,-4.41,0,*50
1487786886.06,10156,10.63,72388.3,-3.49,-4.33,-4.41,0,*58
1487786887.27,10157,10.63,72382.3,-3.47,-4.29,-4.41,0,*5C
1487786888.47,10158,10.63,72388.0,-3.49,-4.33,-4.33,0,*53
1487786889.69,10159,10.63,72388.0,-3.47,-4.29,-4.29,0,*5C
1487786890.89,10160,10.63,72392.5,-3.49,-4.33,-4.41,0,*5D
1487786892.11,10161,10.63,72390.8,-3.47,-4.29,-4.37,0,*58
1487786893.33,10162,10.63,72384.8,-3.47,-4.29,-4.29,0,*54
1487786894.55,10163,10.63,72372.0,-3.47,-4.41,-4.49,0,*5D
1487786895.76,10164,10.63,72372.8,-3.47,-4.41,-4.41,0,*52
1487786896.98,10165,10.63,72380.3,-3.47,-4.29,-4.41,0,*5D
1487786898.2,10166,10.63,72382.5,-3.47,-4.41,-4.37,0,*51
1487786899.42,10167,10.63,72376.5,-3.47,-4.41,-4.49,0,*59
1487786900.63,10168,10.63,72386.5,-3.47,-4.49,-4.49,0,*5E
1487786901.84,10169,10.63,72388.5,-3.47,-4.49,-4.61,0,*55
1487786903.06,10170,10.63,72392.5,-3.47,-4.41,-4.49,0,*5F
1487786904.28,10171,10.63,72386.0,-3.47,-4.29,-4.41,0,*58
1487786905.5,10172,10.63,72386.3,-3.47,-4.29,-4.37,0,*5A
1487786906.71,10173,10.63,72384.0,-3.47,-4.29,-4.49,0,*52
1487786907.93,10174,10.63,72382.8,-3.47,-4.29,-4.41,0,*5D